Location: Darazac
(45.1754°N, 2.0846°E)
Time: 12:43:26
(UTC+00:00)

Daily predictions for brighter satellites

Satellite Brightness Start Highest point End
(mag) Time Altitude Azimuth Time Altitude Azimuth Time Altitude Azimuth
Cosmos 1867 3.7 16:32:19 10° SW 16:37:45 80° NW 16:43:16 10° NNE
Envisat 3.0 16:37:01 10° SSE 16:42:03 71° ENE 16:47:08 10° N
Lacrosse 5 rocket 1.2 16:42:35 10° WSW 16:46:14 67° NW 16:49:50 10° NE
Cosmos 773 Rocket 4.4 16:42:48 10° S 16:47:48 46° ESE 16:52:50 10° NNE
YAOGAN 6 2.5 16:47:33 10° SSE 16:51:08 66° ENE 16:54:43 10° N
Cosmos 1606 2.8 16:49:32 10° S 16:53:25 85° W 16:57:20 10° N
Cosmos 962 Rocket 4.5 16:47:57 10° N 16:54:15 82° E 17:00:26 10° S
Cosmos 2297 3.7 16:48:41 10° NNW 16:54:25 84° ENE 17:00:08 10° SSE
OE (NEXTSAT) 4.3 16:51:36 10° W 16:55:04 75° N 16:58:30 10° E
AQUARIUS 4.4 16:52:01 10° SE 16:56:20 48° ENE 17:00:40 10° N
SL-16 R/B 2.2 16:52:01 10° SSW 16:57:41 84° ESE 17:03:23 10° NNE
CZ-4B R/B 2.7 16:56:34 10° NE 16:58:53 19° E 17:01:15 10° SE
Landsat 5 3.7 16:55:39 10° NNE 17:00:09 88° ESE 17:04:40 10° SSW
BREEZE-M DEB (TANK) 1.7 16:59:00 10° WSW 17:01:54 71° SSE 17:03:26 15° ENE
USA 215 4.5 16:59:23 10° ENE 17:04:32 24° SE 17:09:38 10° S
SMAP 3.0 17:00:42 10° SSE 17:05:18 69° ENE 17:09:58 10° N
Sich 1 3.7 17:04:01 10° NNW 17:08:20 59° W 17:12:34 10° S
YAOGAN 1 4.2 17:09:19 13° ENE 17:09:25 13° ENE 17:11:30 10° NNE
CZ-4C R/B 3.7 17:07:33 10° N 17:11:09 59° WNW 17:14:41 10° SSW
Cosmos 1151 Rocket 2.9 17:07:36 10° S 17:11:50 66° E 17:16:05 10° NNE
Cosmos 1470 Rocket 3.8 17:09:05 10° N 17:13:15 45° ENE 17:17:23 10° SSE
CSL-04 DEB 4.5 17:11:40 10° NNE 17:15:49 66° ESE 17:20:03 10° S
Cosmos 864 Rocket 4.5 17:12:53 10° N 17:19:11 68° E 17:25:22 10° SSE
Cosmos 1515 Rocket 4.0 17:15:48 10° SSE 17:19:54 41° E 17:24:02 10° NNE
CZ-2C R/B 3.9 17:17:28 10° ESE 17:21:17 23° ENE 17:25:01 10° NNE
SL-8 Rocket 4.0 17:16:07 10° N 17:22:24 90° ENE 17:28:42 10° S
Cosmos 482 Debris 2.6 17:20:49 10° WNW 17:22:35 65° SSW 17:23:46 19° SE
TIMED 4.5 17:18:56 10° S 17:23:15 69° ESE 17:27:36 10° NNE
Cosmos 2341 Rocket 4.4 17:17:40 10° NNW 17:23:56 69° W 17:30:14 10° S
Cosmos 1238 Rocket 4.2 17:22:12 10° NNE 17:25:23 21° ENE 17:29:00 10° SE
TELKOM 3 4.4 17:23:14 10° WNW 17:25:40 27° N 17:26:18 23° NNE
COSMO-SKYMED 1 3.3 17:23:06 12° NE 17:26:36 32° E 17:30:30 10° SSE
Cosmos 1689 Rocket 4.4 17:29:01 12° SE 17:29:01 12° SE 17:29:24 10° SE
X-37B 0.9 17:24:43 10° WSW 17:27:51 59° SSE 17:29:28 25° E
Cosmos 1959 Rocket 4.5 17:21:36 10° N 17:28:00 82° E 17:34:21 10° S
USA 281 3.8 17:22:52 10° ESE 17:28:33 33° NE 17:34:15 10° N
USA 81 4.1 17:26:41 10° N 17:31:59 86° W 17:37:17 10° S
Cosmos 2228 Rocket 4.0 17:28:42 10° SSE 17:32:33 28° E 17:34:29 20° NE
CORIOLIS 4.3 17:27:15 10° SSE 17:32:40 81° WSW 17:38:09 10° NNW
Helios 1A Rocket 4.1 17:33:25 21° NE 17:33:25 21° NE 17:35:53 10° NNE
Meteor 1-4 Rocket 2.4 17:30:12 10° S 17:33:48 81° E 17:37:20 10° NNE
Cosmos 2285 Rocket 4.4 17:28:12 10° NNW 17:34:33 68° WSW 17:40:48 10° S
H-2A R/B 3.1 17:35:18 21° ENE 17:36:11 22° ENE 17:40:06 10° NNE
Cosmos 1812 3.6 17:33:08 10° SSE 17:36:23 26° E 17:36:35 26° E
Cosmos 1821 Rocket 4.3 17:32:06 10° N 17:38:03 43° ENE 17:44:02 10° SE
USA 267 3.9 17:34:11 19° ENE 17:38:15 39° NNE 17:44:12 10° NW
Cosmos 1939 Rocket 2.9 17:34:46 10° SSE 17:38:32 52° ENE 17:42:22 10° N
Cosmos 1328 Rocket 3.8 17:35:29 10° SSW 17:39:47 71° W 17:44:08 10° N
CZ-4 R/B 2.3 17:41:26 26° NE 17:41:26 26° NE 17:44:20 10° N
BREEZE-M DEB (TANK) 3.7 17:38:59 10° SSW 17:42:02 20° SSE 17:42:53 18° SE
Cosmos 44 Rocket 3.9 17:37:50 10° NNW 17:42:40 38° NE 17:45:09 24° E
Cosmos 1933 Rocket 3.5 17:38:54 10° N 17:43:22 65° E 17:47:47 10° SSE
IRS-1C Rocket 4.1 17:39:47 10° SSE 17:44:55 55° ENE 17:50:04 10° N
Cosmos 1602 3.9 17:42:00 10° NNW 17:45:55 75° W 17:49:46 10° S
SAR-Lupe-1 4.5 17:46:35 36° ENE 17:47:12 40° E 17:50:35 10° S
Cosmos 2181 Rocket 4.5 17:41:23 10° SSW 17:47:45 65° W 17:54:03 10° N
Lacrosse 4 Rocket 3.5 17:46:14 10° SE 17:46:58 13° SE 17:46:58 13° SE
NOAA 11 4.3 17:43:17 10° S 17:48:42 78° WSW 17:54:10 10° NNW
Cosmos 1680 Rocket 4.2 17:44:38 10° SSE 17:49:13 31° E 17:50:18 29° ENE
Cosmos 2237 Rocket 4.4 17:45:28 10° W 17:49:23 19° NW 17:53:21 10° N
CZ-4B R/B 4.2 17:44:54 10° S 17:50:02 48° W 17:55:09 10° NNW
SL-24 R/B 3.9 17:49:33 33° NE 17:50:45 47° E 17:54:16 10° S
Cosmos 1603 3.6 17:47:44 10° S 17:53:16 64° ESE 17:56:56 22° NE
CZ-2D R/B 3.2 17:51:39 10° SSE 17:55:23 56° ENE 17:59:10 10° N
Cosmos 1943 3.2 17:51:06 10° S 17:56:39 60° ESE 17:59:58 25° NE
H-2A R/B 3.8 17:54:36 10° N 17:58:19 31° WNW 18:02:05 10° SW
Cosmos 1538 Rocket 4.2 17:53:26 10° SSW 17:58:48 76° WNW 18:03:43 13° NNE
Cosmos 2369 Rocket 2.2 17:53:26 10° NNW 17:59:09 83° WSW 18:04:47 10° SSE
Cosmos 1943 Rocket 3.1 17:54:57 10° NW 18:00:18 50° WSW 18:05:41 10° S
Meteor 1-14 Rocket 4.5 17:55:29 10° NNW 18:01:28 79° W 18:07:26 10° S
Meteor 1-5 Rocket 4.2 17:55:43 10° N 18:01:36 65° ENE 18:07:16 10° SSE
Cosmos 1782 3.5 17:58:20 10° SSW 18:02:12 53° WNW 18:06:08 10° N
Okean O Rocket 3.3 17:58:14 10° SSW 18:02:14 35° W 18:06:17 10° NNW
Cosmos 1461 4.3 17:59:34 10° S 18:02:43 26° SE 18:02:43 26° SE
Okean-O 2.7 17:59:28 10° SE 18:03:45 50° ENE 18:08:04 10° N
ISS -2.5 18:03:22 10° NW 18:05:55 30° N 18:05:55 30° N
ARGOS 4.4 18:08:32 24° NNE 18:08:32 24° NNE 18:11:16 10° N
CENTAUR R/B 3.0 18:01:32 10° S 18:06:45 36° ESE 18:07:45 34° E
Cosmos 2112 Rocket 4.4 18:04:50 10° S 18:09:43 40° ESE 18:09:53 40° E
Cosmos 2056 Rocket 4.4 18:05:47 10° N 18:09:29 31° NE 18:09:29 31° NE
ERS-2 2.8 18:10:46 20° N 18:13:06 54° WNW 18:16:40 10° SSW
SKYMED 2 3.6 18:11:44 19° N 18:14:48 79° WNW 18:19:08 10° SSW
NOSS 3-2 (C) 3.8 18:09:43 10° S 18:14:49 38° ESE 18:15:09 38° ESE
Cosmos 1869 Rocket 3.5 18:13:39 10° N 18:22:43 - SSE 18:17:49 60° ENE
BREEZE-M DEB (TANK) 3.2 18:10:53 10° SW 18:19:28 64° SSE 18:19:59 57° ESE
Meteor 1-27 Rocket 4.0 18:15:46 10° SSE 18:20:11 42° ESE 18:20:11 42° ESE
Meteor 1-10 Rocket 4.0 18:19:44 10° S 18:25:22 79° E 18:28:50 24° NNE
Lacrosse 5 rocket 3.2 18:23:24 10° WNW 18:25:52 17° NNW 18:25:52 17° NNW
BREEZE-M DEB (TANK) 4.4 18:25:57 10° WNW 18:26:38 18° NW 18:26:38 18° NW
Cosmos 371 Rocket 4.2 18:24:57 10° NNW 18:28:01 35° N 18:28:01 35° N
CZ-4B R/B 3.7 18:29:34 16° NNW 18:31:05 21° WNW 18:33:34 10° WSW
NOSS 3-2 (A) 3.2 18:34:20 10° SW 18:39:57 89° WNW 18:41:27 55° NE
SL-16 R/B 4.4 18:38:30 10° W 18:42:32 20° NW 18:46:35 10° N
YAOGAN 1 3.6 18:46:28 39° NNW 18:46:28 39° NNW 18:49:17 10° NNW
Cosmos 1535 Rocket 4.3 18:39:28 10° N 18:45:36 75° E 18:51:43 10° SSE
USA 215 3.1 18:46:42 58° ENE 18:48:08 83° SE 18:54:42 10° SW
Cosmos 1656 Rocket 4.3 18:48:39 10° NW 18:54:08 54° WSW 18:58:59 13° S
MOS 1 Rocket 3.8 18:52:43 43° N 18:54:30 72° WNW 18:59:49 10° SSW
USA 238 DEB 3.6 18:52:44 10° SW 18:59:20 80° NW 19:00:35 61° NNE
USA 238 3.6 18:52:50 10° SW 18:59:25 80° NW 19:00:39 62° NNE
CZ-2C R/B 3.9 18:56:08 10° S 19:00:56 46° W 19:05:35 10° NNW
X-37B 3.9 19:01:15 10° W 19:01:44 14° W 19:01:44 14° W
Cosmos 1934 Rocket 4.2 19:01:13 10° NNW 19:07:33 72° W 19:13:47 10° S
CSL-04 Debris 4.4 19:09:14 67° WNW 19:09:14 67° WNW 19:14:24 10° NNW
USA 281 3.6 19:06:16 10° S 19:12:43 59° WSW 19:19:13 10° NNW
H-2A R/B 2.8 19:15:55 50° WNW 19:15:55 50° WNW 19:20:19 10° NNW
CZ-4 R/B 3.8 19:17:28 20° WNW 19:17:28 20° WNW 19:19:18 10° NW
USA 267 3.3 19:21:32 71° NNW 19:21:32 71° NNW 19:27:21 10° NW
Lacrosse 4 Rocket 4.2 19:22:57 10° SW 19:23:20 12° SW 19:23:20 12° SW
CENTAUR R/B 3.7 19:51:14 10° WSW 19:54:58 37° W 19:54:58 37° W
